NOAA 17 DEB, 48181

Orbit data source: Space-Track

NOAA 17 DEB, 48181 is space debris in SSO originally from a launch on Mon, 24 Jun 2002 UTC launched from the Air Force Western Test Range (AFWTR). Debris objects in space refer to the collection of defunct objects orbiting the Earth. Examples of debris include non-operational satellites, rocket bodies, and fragments generated from explosions, collisions, or faulty payload assembly.

Loading next visibility...
Identifier
48181, 2002-032W
Orbit
SSO
Country
Flag of USUS
Related business
Manufacturer
Unknown
Mission
Spacecraft
Bus & Motor
Unknown
Mass
Unknown
Launch date (UTC)
2002-06-24 (23 years ago)
Launch vehicle
Unknown
Launch site
Air Force Western Test Range (AFWTR)
Object type
Payload
Rocket body
Debris
Shape & HBR
Unknown shape, 0.1 m
Radar Cross Section
Small (<0.1 m²)

Expand to show TLE details & history
Last TLE update: 11 hours ago

TLE from 11 hours ago
0 NOAA 17 DEB
1 48181U 02032W   25349.95038224  .00041987  00000-0  42510-2 0  9998
2 48181  98.7015 342.4135 0011903  41.9297 318.2828 14.90745357248306
Epoch: 2025-12-15T22:48Z
TLE epoch observation values (Epoch: 2025-12-15T22:48:33.025Z)
Latitude
0.00001°
Longitude
-84.5657°
Altitude
592.428 km
Speed
7.567 km/s
True Right ascension
22h 49m 39s
True Declination
0° 00' 00"
Sunlit
Object was in daylight at epoch
Visualization orbit readout
Latitude
Unknown
Longitude
Unknown
Altitude
Unknown
Speed
Unknown
Apparent Right ascension
Unknown
Apparent Declination
Unknown
Sunlit
N/A
Visualization observer readout
Local Sidereal Time
08:20:49
Azimuth
Unknown
Elevation
Unknown
Doppler factor
Unknown
Orbital elements
Apogee altitude
600.972 km
Perigee altitude
584.377 km
Semi-major axis
6,970.812 km
Eccentricity
0.00119
Inclination
98.7015°
RAAN
342.4135°
Arg. of periapsis
41.9297°
True anomaly
318.19193°
Mean anomaly
318.2828°
Eccentric anomaly
318.23738°
Mean motion
3.72922 °/min
Orbital period
96.53 mins
BSTAR
0.004251
Loading maneuver chart data...
Computing Atmospheric mass density...
Loading historical data...
Loading historical data...
Loading historical data...
Loading historical data...
Loading historical data...
Loading historical data...
Loading historical data...

Documentation

Showing up to 5 results
|